Location: Caltech
(34.1382°N, 118.1253°W)
Time: 06:08:45
(UTC-08:00)

JAS-1B - Visible Passes

Search period start: 22 January 2017 00:00
Search period end: 01 February 2017 00:00
Orbit: 911 x 1744 km, 99.0° (Epoch: 21 January)

Date Brightness Start Highest point End Pass type
(mag) Time Alt. Az. Time Alt. Az. Time Alt. Az.
24 Jan 9.8 17:36:49 10° N 17:44:11 30° WNW 17:52:07 10° WSW visible
25 Jan 10.0 17:56:30 10° NNW 18:02:57 23° WNW 18:09:48 10° WSW visible
26 Jan 10.2 18:16:30 10° NNW 18:21:37 17° WNW 18:27:01 10° W visible
27 Jan 10.4 18:37:18 10° NW 18:40:13 12° NW 18:43:13 10° WNW visible
30 Jan 10.0 17:40:37 10° N 17:47:57 27° WNW 17:55:41 10° WSW visible
31 Jan 10.1 18:00:23 10° NNW 18:06:40 21° WNW 18:13:13 10° WSW visible
